Lihue, HI

1:20 PM HST on March 27, 2017 (GMT -1000)
Lihue

Weather History for PHLI - May, 2013

Change the Weather History Date:

Friday, May 10, 2013

  Actual Average Record
Temperature  
Mean Temperature 73 °F 75 °F  
Max Temperature 79 °F 81 °F 88 °F (1981)
Min Temperature 67 °F 70 °F 59 °F (1954)
Degree Days  
Heating Degree Days 0 0  
Month to date heating degree days 0 0  
Since 1 July heating degree days 0 0  
Cooling Degree Days 8 10  
Month to date cooling degree days 82 100  
Year to date cooling degree days 844 1004  
Growing Degree Days 22 (Base 50)    
Moisture  
Dew Point 65 °F    
Average Humidity 77    
Maximum Humidity 87    
Minimum Humidity 67    
Precipitation  
Precipitation 0.00 in 0.07 in 2.37 in (1977)
Month to date precipitation 0.14 0.78  
Year to date precipitation 14.36 14.55  
Snow  
Snow 0.00 in - - ()
Month to date snowfall 0.0  
Since 1 July snowfall 0.0  
Snow Depth 0.00 in    
Sea Level Pressure  
Sea Level Pressure 30.10 in    
Wind  
Wind Speed 11 mph (North)    
Max Wind Speed 21 mph    
Max Gust Speed 24 mph    
Visibility 10 miles    
Events      
T = Trace of Precipitation, MM = Missing Value Source: NWS Daily Summary

Daily Weather History Graph

Daily Weather History Graph

Search for Another Location

Airport or City:

Trip Planner

Search our weather history database for the weather conditions in past years. The results will help you decide how hot, cold, wet, or windy it might be!

Date:

Astronomy

May. 10, 2013 Rise Set
Actual Time 6:00 AM HST 7:07 PM HST
Civil Twilight 5:36 AM HST 7:31 PM HST
Nautical Twilight 5:08 AM HST 7:59 PM HST
Astronomical Twilight 4:39 AM HST 8:28 PM HST
Moon 6:34 AM HST (5/10) 8:03 PM HST (5/10)
Length of Visible Light 13h 55m
Length of Day
13h 07m
New Moon, 1% of the Moon is Illuminated
May 10
New Moon
May 17
First Quarter
May 24
Full
May 31
Last Quarter
Jun 8
New

Hourly Weather History & Observations

Time (HST) Temp. Dew Point Humidity Pressure Visibility Wind Dir Wind Speed Gust Speed Precip Events Conditions
12:53 AM 68.0 °F 64.9 °F 90% 30.09 in 10.0 mi WNW 5.8 mph - N/A   Clear
1:53 AM 69.1 °F 64.9 °F 87% 30.08 in 10.0 mi West 6.9 mph - N/A   Overcast
2:53 AM 69.1 °F 64.0 °F 84% 30.06 in 10.0 mi West 5.8 mph - N/A   Scattered Clouds
3:53 AM 68.0 °F 63.0 °F 84% 30.06 in 10.0 mi West 5.8 mph - N/A   Scattered Clouds
4:53 AM 66.9 °F 63.0 °F 87% 30.05 in 10.0 mi West 6.9 mph - N/A   Clear
5:53 AM 68.0 °F 63.0 °F 84% 30.06 in 10.0 mi WNW 4.6 mph - N/A   Mostly Cloudy
6:53 AM 71.1 °F 66.0 °F 84% 30.08 in 10.0 mi NNW 8.1 mph - N/A   Scattered Clouds
7:53 AM 73.9 °F 66.9 °F 79% 30.09 in 10.0 mi North 10.4 mph - N/A   Clear
7:57 AM 73.4 °F 66.2 °F 78% 30.10 in 10.0 mi North 9.2 mph - N/A   Scattered Clouds
8:53 AM 75.0 °F 66.0 °F 73% 30.11 in 10.0 mi NNE 16.1 mph - N/A   Scattered Clouds
9:53 AM 75.9 °F 66.9 °F 74% 30.12 in 10.0 mi NNE 16.1 mph - N/A   Clear
9:54 AM 75.2 °F 66.2 °F 73% 30.13 in 10.0 mi NNE 17.3 mph - N/A   Scattered Clouds
10:53 AM 75.9 °F 66.9 °F 74% 30.13 in 10.0 mi NNE 16.1 mph - N/A   Scattered Clouds
11:53 AM 75.0 °F 66.0 °F 73% 30.13 in 10.0 mi NNE 17.3 mph - N/A   Overcast
12:53 PM 78.1 °F 66.9 °F 68% 30.12 in 10.0 mi NNE 18.4 mph - N/A   Mostly Cloudy
1:53 PM 78.1 °F 66.9 °F 68% 30.10 in 10.0 mi NNE 13.8 mph - N/A   Mostly Cloudy
2:53 PM 75.9 °F 64.9 °F 69% 30.09 in 10.0 mi North 17.3 mph - N/A   Overcast
3:53 PM 73.9 °F 64.9 °F 73% 30.09 in 10.0 mi North 13.8 mph - N/A   Overcast
4:02 PM 73.4 °F 64.4 °F 73% 30.09 in 10.0 mi North 13.8 mph - N/A   Overcast
4:27 PM 73.4 °F 64.4 °F 73% 30.09 in 10.0 mi North 11.5 mph - N/A   Overcast
4:35 PM 73.4 °F 64.4 °F 73% 30.09 in 10.0 mi North 12.7 mph - N/A   Overcast
4:53 PM 73.0 °F 64.0 °F 73% 30.09 in 10.0 mi North 12.7 mph - N/A   Overcast
5:01 PM 73.4 °F 64.4 °F 73% 30.09 in 10.0 mi North 9.2 mph - N/A   Overcast
5:41 PM 73.4 °F 64.4 °F 73% 30.09 in 10.0 mi North 11.5 mph - N/A   Overcast
5:53 PM 73.0 °F 64.0 °F 73% 30.09 in 10.0 mi North 12.7 mph - N/A   Overcast
6:53 PM 72.0 °F 63.0 °F 73% 30.10 in 10.0 mi North 10.4 mph - N/A   Overcast
7:53 PM 72.0 °F 63.0 °F 73% 30.13 in 10.0 mi North 9.2 mph - N/A   Overcast
8:53 PM 71.1 °F 63.0 °F 75% 30.15 in 10.0 mi North 6.9 mph - N/A   Mostly Cloudy
9:53 PM 71.1 °F 62.1 °F 73% 30.16 in 10.0 mi North 8.1 mph - N/A   Mostly Cloudy
10:53 PM 71.1 °F 62.1 °F 73% 30.17 in 10.0 mi North 9.2 mph - N/A   Overcast
11:53 PM 71.1 °F 63.0 °F 75% 30.16 in 10.0 mi North 10.4 mph - 0.00 in   Overcast